Jump to content
  • Member Statistics

    17,179
    Total Members
    7,904
    Most Online
    DClerico
    Newest Member
    DClerico
    Joined

December 16-17, 2020 Storm Observations and Nowcast


wdrag
 Share

Recommended Posts

Current dew points in the metro area and north of the city.

CITY           SKY/WX    TMP DP  RH WIND       PRES   REMARKS
Central Park   CLOUDY    31  17  56 NE12G18   30.31F WCI  22
Bronx Lehman C   N/A     30  10  43 E13         N/A  WCI  20
LaGuardia Arpt CLOUDY    33  19  56 NE23      30.31F WCI  21
Queens College   N/A     32  18  55 NE15        N/A  WCI  22
Kennedy Intl   CLOUDY    31  16  54 NE17      30.30F WCI  19
Breezy Point   NOT AVBL
Brooklyn Coll    N/A     32  18  55 NE9         N/A  WCI  24
Staten Island    N/A     32  19  59 NE12        N/A  WCI  23
Newark/Liberty CLOUDY    32  17  54 NE16      30.30F WCI  21
Teterboro      CLOUDY    28   9  44 NE9       30.31F WCI  19
$$
White Plains   CLOUDY    26   0  32 NE13G20   30.30F WCI  15
Larchmont Harb   N/A    N/A N/A N/A N21         N/A
Croton On Huds   N/A    N/A N/A N/A E5          N/A
Somers           N/A     27   7  43 NE3         N/A
Brewster         N/A     25   3  39 NE5         N/A  WCI  19
Newburgh       CLOUDY    23  10  58 NE12      30.35F WCI  12
Montgomery     PTSUNNY   21   8  57 NE10      30.34F WCI  10
Otisville        N/A     21   7  53 NE3         N/A
Warwick          N/A     25  10  54 N7          N/A  WCI  17
Suffern          N/A     27   7  43 NE7         N/A  WCI  19
Poughkeepsie   CLOUDY    24   9  52 N8        30.37F WCI  15
Albany         CLOUDY    16   4  59 N8        30.42F WCI 
Link to comment
Share on other sites

31 minutes ago, hudsonvalley21 said:

Current dew points in the metro area and north of the city.

CITY           SKY/WX    TMP DP  RH WIND       PRES   REMARKS
Central Park   CLOUDY    31  17  56 NE12G18   30.31F WCI  22
Bronx Lehman C   N/A     30  10  43 E13         N/A  WCI  20
LaGuardia Arpt CLOUDY    33  19  56 NE23      30.31F WCI  21
Queens College   N/A     32  18  55 NE15        N/A  WCI  22
Kennedy Intl   CLOUDY    31  16  54 NE17      30.30F WCI  19
Breezy Point   NOT AVBL
Brooklyn Coll    N/A     32  18  55 NE9         N/A  WCI  24
Staten Island    N/A     32  19  59 NE12        N/A  WCI  23
Newark/Liberty CLOUDY    32  17  54 NE16      30.30F WCI  21
Teterboro      CLOUDY    28   9  44 NE9       30.31F WCI  19
$$
White Plains   CLOUDY    26   0  32 NE13G20   30.30F WCI  15
Larchmont Harb   N/A    N/A N/A N/A N21         N/A
Croton On Huds   N/A    N/A N/A N/A E5          N/A
Somers           N/A     27   7  43 NE3         N/A
Brewster         N/A     25   3  39 NE5         N/A  WCI  19
Newburgh       CLOUDY    23  10  58 NE12      30.35F WCI  12
Montgomery     PTSUNNY   21   8  57 NE10      30.34F WCI  10
Otisville        N/A     21   7  53 NE3         N/A
Warwick          N/A     25  10  54 N7          N/A  WCI  17
Suffern          N/A     27   7  43 NE7         N/A  WCI  19
Poughkeepsie   CLOUDY    24   9  52 N8        30.37F WCI  15
Albany         CLOUDY    16   4  59 N8        30.42F WCI 

That's neat to see.  I attended Queens College and now to see a reporting station there.  Plus those dew points look good.  Good luck guys!.  Let it snow, let it snow! (please).

  • Like 1
Link to comment
Share on other sites

Snow measuring: CoCORAHS guidance is deepest in 24 hours from time it began for storm total (greater 24hrs, clean the board and add whatever hours beyond). 

However, not all offices do that. I know in Mt Holly,  to limit snowmelt and or drifting problems, clean the board every 6 hours.  That's what I'll be doing at 845PM tonight.

Mat from NJ Climate Center may be commenting-adding on.  

 

 

 

 

  • Like 1
Link to comment
Share on other sites

Create an account or sign in to comment

You need to be a member in order to leave a comment

Create an account

Sign up for a new account in our community. It's easy!

Register a new account

Sign in

Already have an account? Sign in here.

Sign In Now
 Share

  • Recently Browsing   0 members

    • No registered users viewing this page.
×
×
  • Create New...